FENGYUN 1C DEB, 31673

Orbit data source: Space-Track

FENGYUN 1C DEB, 31673 is space debris in SSO originally from a launch on Mon, 10 May 1999 UTC launched from the Taiyaun Space Center, China (TSC). Fengyun 1C debris stems from the Chinese weather satellite Fengyun-1C, which was intentionally destroyed by a Chinese anti-satellite missile in 2007. This event dramatically increased the amount of space debris, with thousands of trackable fragments posing hazards to satellites and human spaceflight. The Fengyun 1C debris cloud has become a focal point in discussions about space sustainability and the need for international regulations to prevent the creation of new debris.

Loading next visibility...
Identifier
31673, 1999-025CCF
Orbit
SSO
Country
Flag of CNCN / PRC
Related business
Manufacturer
Unknown
Mission
Spacecraft
Bus & Motor
Unknown
Mass
Unknown
Launch date (UTC)
1999-05-10 (27 years ago)
Launch vehicle
Unknown
Launch site
Taiyaun Space Center, China (TSC)
Object type
Payload
Rocket body
Debris
Shape & HBR
Unknown shape, 0.1 m
Radar Cross Section
Small (<0.1 m²)

Expand to show TLE details & history
Last TLE update: 4 days ago

TLE from 4 days ago
0 FENGYUN 1C DEB
1 31673U 99025CCF 26234.87469638  .00000358  00000-0  13957-3 0  9997
2 31673  99.3537  94.4688 0125367  39.8452 321.1852 14.32262429685143
Epoch: 2026-08-22T20:59Z
TLE epoch observation values (Epoch: 2026-08-22T20:59:33.767Z)
Latitude
0.00001°
Longitude
168.39926°
Altitude
717.56 km
Speed
7.533 km/s
True Right ascension
06h 17m 52s
True Declination
0° 00' 00"
Sunlit
Object was in daylight at epoch
Visualization orbit readout
Latitude
Unknown
Longitude
Unknown
Altitude
Unknown
Speed
Unknown
Apparent Right ascension
Unknown
Apparent Declination
Unknown
Sunlit
N/A
Visualization observer readout
Local Sidereal Time
01:12:33
Azimuth
Unknown
Elevation
Unknown
Doppler factor
Unknown
Orbital elements
Apogee altitude
871.108 km
Perigee altitude
691.596 km
Semi-major axis
7,159.489 km
Eccentricity
0.01254
Inclination
99.3537°
RAAN
94.4688°
Arg. of periapsis
39.8452°
True anomaly
320.27364°
Mean anomaly
321.1852°
Eccentric anomaly
320.73054°
Mean motion
3.58278 °/min
Orbital period
100.48 mins
BSTAR
0.00013957
Loading maneuver chart data...
Computing Atmospheric mass density...
Loading historical data...
Loading historical data...
Loading historical data...
Loading historical data...
Loading historical data...
Loading historical data...
Loading historical data...

Documentation

Showing up to 5 results
|